Hourly Data Report for May 16, 2022

OTTAWA INTL A
ONTARIO
Current Station Operator: NAVCAN

45°19'00.000" N
75°40'00.000" W
114.90 m
6106001
71628
YOW

Download Data

Hourly Data (May 2022)
Hourly Data Report for May 16, 2022
TIME
LST
Temp Definition
°C
Dew Point Definition
°C
Rel Hum Definition
%
Precip. Amount Definition
mm

Wind Dir Definition
10's deg

Wind Spd Definition
km/h
Visibility Definition
km
Stn Press Definition
kPa
Hmdx Definition


Wind Chill Definition


Weather Definition


00:00 16.4 16.2 99   7 10 0.6 99.25     Fog
01:00 15.8 15.6 99   13 4 6.4 99.20     Fog
02:00 15.7 15.5 99   12 6 3.2 99.15     Fog
03:00 15.4 15.3 99   19 5 8.1 99.11     Fog
04:00 15.4 15.2 99   31 6 12.9 99.05     Mostly Cloudy
05:00 14.8 14.7 99   8 7 0.4 99.13     Fog
06:00 15.2 15.1 99   36 2 0.2 99.14     Fog
07:00 15.9 15.8 99   29 9 4.8 99.13     Fog
08:00 18.0 16.7 92   1 10 24.1 99.07     LegendNANA
09:00 19.3 16.3 83   1 8 24.1 99.04     LegendNANA
10:00 20.5 16.9 80   9 14 24.1 98.97 26   Mostly Cloudy
11:00 21.1 16.3 74   8 14 24.1 98.89 26   LegendNANA
12:00 21.6 16.4 72   8 13 24.1 98.79 26   LegendNANA
13:00 20.8 15.9 73   7 14 24.1 98.62 25   Mostly Cloudy
14:00 20.6 16.4 76   5 11 24.1 98.45 25   LegendNANA
15:00 17.4 15.6 89   29 18 4.0 98.45     Thunderstorms,Moderate Rain
16:00 13.7 12.9 95   30 26 2.8 98.58     Thunderstorms,Moderate Rain, Fog
17:00 13.2 12.4 95   32 35 4.0 98.52     Moderate Rain, Fog
18:00 12.2 11.1 93   32 34 12.9 98.44     Rain
19:00 12.2 10.9 92   32 28 24.1 98.44     Rain
20:00 12.3 10.8 90   30 21 24.1 98.53     Rain
21:00 11.6 10.8 95   28 23 6.4 98.61     Rain, Fog
22:00 11.3 10.4 94   28 26 12.9 98.65     Rain
23:00 10.6 9.6 94   28 28 12.9 98.67     Rain

Notes on Data Quality.

Legend

  • E = Estimated
  • M = Missing
  • NA = Not Available*
  • [empty] = Indicates an unobserved value
Date modified: